Regional Weather Roundup
Issued by NWS Green Bay, WI

Home | Current Version | Previous Version | Graphics & Text | Print | Product List | Glossary Off
Versions: 1 2 3 4 5 6 7 8 9 10 11 12 13 14 15 16 17 18 19 20 21 22 23 24 25 26 27 28 29 30 31 32 33 34 35 36 37 38 39 40 41 42 43 44 45 46 47 48 49 50

000
ASUS43 KGRB 201410
RWRGRB

NORTH-CENTRAL AND NORTHEAST WISCONSIN REGIONAL WEATHER ROUNDUP
NATIONAL WEATHER SERVICE GREEN BAY WI
900 AM CDT SUN APR 20 2014

WIZ005-009-010>012-018-019-201500-
NORTH CENTRAL WISCONSIN

CITY           SKY/WX    TMP DP  RH WIND       PRES   REMARKS
IRONWOOD       MOSUNNY   52  43  71 W5        30.01F
MANITOWISH WTR MOSUNNY   49  41  72 S5        30.05F
ARBOR VITAE    PTSUNNY   52  42  70 S7        30.06F
EAGLE RIVER    CLOUDY    45  41  85 CALM      30.07S
LAND O LAKES   PTSUNNY   52  40  63 SW7       30.07F
RHINELANDER    CLOUDY    48  40  73 SW7       30.08S
PHILLIPS       SUNNY     54  46  73 S5        30.06S
ANTIGO         LGT RAIN  46  44  93 CALM      30.10S
TOMAHAWK       CLOUDY    47  42  81 CALM      30.07F
MERRILL        LGT RAIN  49  46  90 CALM      30.09S
$$

WIZ013-073-201500-
NORTHEAST WISCONSIN

CITY           SKY/WX    TMP DP  RH WIND       PRES   REMARKS
IRON MOUNTAIN  CLOUDY    45  42  89 S5        30.09S FOG
MARINETTE      CLOUDY    41  37  87 S9        30.12F
OCONTO         CLOUDY    42  39  92 S6        30.14S
$$

WIZ017-030-035>037-045-201500-
CENTRAL WISCONSIN

CITY           SKY/WX    TMP DP  RH WIND       PRES   REMARKS
MEDFORD        CLOUDY    52  46  78 S10       30.07S
WAUSAU         LGT RAIN  51  43  74 S10       30.07S
MOSINEE        LGT RAIN  48  45  87 S10       30.11R
MARSHFIELD     LGT RAIN  52  48  86 S8        30.08F
WISC RAPIDS    RAIN      51  48  89 S5        30.12S FOG
STEVENS POINT  RAIN      49  43  79 S6        30.12S
WAUPACA        CLOUDY    55  43  62 CALM      30.13R
SHAWANO        CLOUDY    50  45  81 S5        30.12S
CLINTONVILLE   CLOUDY    50  43  76 S5        30.12F
$$

WIZ038-039-048-051-201500-
FOX VALLEY

CITY           SKY/WX    TMP DP  RH WIND       PRES   REMARKS
NWS GREEN BAY  CLOUDY    49  43  80 S10       30.13F
APPLETON       CLOUDY    48  43  81 SE8       30.16R
OSHKOSH        CLOUDY    51  40  65 S12       30.13F
FOND DU LAC    CLOUDY    54  39  57 S12       30.14F
$$

WIZ022-050-052-201500-
EAST CENTRAL WISCONSIN

CITY           SKY/WX    TMP DP  RH WIND       PRES   REMARKS
STURGEON BAY   CLOUDY    39  34  81 S13       30.17S
MANITOWOC      CLOUDY    42  34  73 S10       30.18F
SHEBOYGAN      CLOUDY    45  35  68 S7        30.17F
$$

LMZ563-521-522-541>543-201500-
LAKESHORE

STATION/POSITION TIME  TEMP    WIND        PRES    VSBY  WAVE
                       AIR SEA DIR/SP/G                  HT/PER
                 (UTC) (F)     (DEG/KT/KT) (MB)    (MI)  (FT/S)
SHEBOYGAN LKSHOR 1400   40     180/ 17/ 19 1022.3F
KEWAUNEE LKSHORE 1400   38     170/ 16/ 18 1022.3F
NORTHPORT PIER   1400   39     170/ 12/ 22 1021.3F
SISTER BAY LKSHO 1400   37     140/ 20/ 26   N/A
MENOMINEE LKSHOR 1400   38     160/ 13/ 18 1020.9S
$$



USA.gov is the U.S. government's official web portal to all federal, state and local government web resources and services.